Time,TemperatureF,DewpointF,PressureIn,WindDirection,WindDirectionDegrees,WindSpeedMPH,WindSpeedGustMPH,Humidity,HourlyPrecipIn,Conditions,Clouds,dailyrainin,SolarRadiationWatts/m^2,SoftwareType,DateUTC
2013-09-15 00:02:00,65.4,54.0,29.85,NW,308,0.0,0.0,68,0.00,,,0.00,0,Custom,2013-09-15 05:02:00,
2013-09-15 00:07:00,65.4,54.0,29.84,NW,307,0.0,0.0,67,0.00,,,0.00,0,Custom,2013-09-15 05:07:00,
2013-09-15 00:12:00,65.6,55.0,29.84,NW,308,0.0,0.0,68,0.00,,,0.00,0,Custom,2013-09-15 05:12:00,
2013-09-15 00:17:00,65.3,54.0,29.84,NW,308,0.0,0.0,68,0.00,,,0.00,0,Custom,2013-09-15 05:17:00,
2013-09-15 00:22:00,65.6,55.0,29.83,NW,308,0.0,0.0,68,0.00,,,0.00,0,Custom,2013-09-15 05:22:00,
2013-09-15 00:27:00,65.6,55.0,29.84,NW,308,0.0,0.0,67,0.00,,,0.00,0,Custom,2013-09-15 05:27:00,
2013-09-15 00:32:00,65.6,55.0,29.84,NW,307,0.0,0.0,67,0.00,,,0.00,0,Custom,2013-09-15 05:32:00,
2013-09-15 00:37:00,65.7,55.0,29.84,NW,308,0.0,0.0,67,0.00,,,0.00,0,Custom,2013-09-15 05:37:00,
2013-09-15 00:42:00,65.9,55.0,29.84,NW,308,0.0,0.0,67,0.00,,,0.00,0,Custom,2013-09-15 05:42:00,
2013-09-15 00:47:00,66.1,55.0,29.84,NW,308,0.0,0.0,67,0.00,,,0.00,0,Custom,2013-09-15 05:47:00,
2013-09-15 00:52:00,66.3,55.0,29.85,NW,307,0.0,0.0,67,0.00,,,0.00,0,Custom,2013-09-15 05:52:00,
2013-09-15 00:57:00,66.2,55.0,29.84,NW,308,0.0,0.0,66,0.00,,,0.00,0,Custom,2013-09-15 05:57:00,
2013-09-15 01:02:00,66.1,55.0,29.84,NW,307,0.0,0.0,67,0.00,,,0.00,0,Custom,2013-09-15 06:02:00,
2013-09-15 01:07:00,65.9,55.0,29.84,NW,306,0.0,0.0,67,0.00,,,0.00,0,Custom,2013-09-15 06:07:00,
2013-09-15 01:12:00,65.9,55.0,29.84,NW,306,0.0,0.0,67,0.00,,,0.00,0,Custom,2013-09-15 06:12:00,
2013-09-15 01:17:00,65.8,55.0,29.84,WNW,303,0.0,0.0,67,0.00,,,0.00,0,Custom,2013-09-15 06:17:00,
2013-09-15 01:22:00,65.9,55.0,29.84,WNW,303,0.0,0.0,66,0.00,,,0.00,0,Custom,2013-09-15 06:22:00,
2013-09-15 01:27:00,65.9,54.0,29.84,WNW,303,0.0,0.0,66,0.00,,,0.00,0,Custom,2013-09-15 06:27:00,
2013-09-15 01:32:00,66.0,54.0,29.84,NW,306,0.0,0.0,66,0.00,,,0.00,0,Custom,2013-09-15 06:32:00,
2013-09-15 01:37:00,65.9,55.0,29.84,NW,305,0.0,0.0,66,0.00,,,0.00,0,Custom,2013-09-15 06:37:00,
2013-09-15 01:42:00,66.1,54.0,29.84,WNW,301,0.0,0.0,66,0.00,,,0.00,0,Custom,2013-09-15 06:42:00,
2013-09-15 01:47:00,66.1,55.0,29.84,WNW,303,0.0,0.0,66,0.00,,,0.00,0,Custom,2013-09-15 06:47:00,
2013-09-15 01:52:00,66.2,55.0,29.84,WNW,303,0.0,0.0,66,0.00,,,0.00,0,Custom,2013-09-15 06:52:00,
2013-09-15 01:57:00,66.0,54.0,29.84,NW,304,0.0,0.0,66,0.00,,,0.00,0,Custom,2013-09-15 06:57:00,
2013-09-15 02:02:00,66.2,55.0,29.84,NW,305,0.0,0.0,66,0.00,,,0.00,0,Custom,2013-09-15 07:02:00,
2013-09-15 02:07:00,66.2,54.0,29.84,NW,306,0.0,0.0,66,0.00,,,0.00,0,Custom,2013-09-15 07:07:00,
2013-09-15 02:12:00,66.2,55.0,29.84,NW,304,0.0,0.0,66,0.00,,,0.00,0,Custom,2013-09-15 07:12:00,
2013-09-15 02:17:00,65.9,54.0,29.84,NW,304,0.0,0.0,66,0.00,,,0.00,0,Custom,2013-09-15 07:17:00,
2013-09-15 02:22:00,65.7,54.0,29.84,WNW,300,0.0,0.0,67,0.00,,,0.00,0,Custom,2013-09-15 07:22:00,
2013-09-15 02:27:00,65.7,55.0,29.84,WNW,301,0.0,0.0,67,0.00,,,0.00,0,Custom,2013-09-15 07:27:00,
2013-09-15 02:32:00,65.6,54.0,29.83,WNW,301,0.0,0.0,67,0.00,,,0.00,0,Custom,2013-09-15 07:32:00,
2013-09-15 02:37:00,65.4,54.0,29.83,WNW,300,0.0,0.0,67,0.00,,,0.00,0,Custom,2013-09-15 07:37:00,
2013-09-15 02:42:00,65.2,54.0,29.83,WNW,297,0.0,0.0,68,0.00,,,0.00,0,Custom,2013-09-15 07:42:00,
2013-09-15 02:47:00,65.1,54.0,29.83,WNW,295,0.0,0.0,68,0.00,,,0.00,0,Custom,2013-09-15 07:47:00,
2013-09-15 02:52:00,65.1,54.0,29.83,WNW,296,0.0,0.0,68,0.00,,,0.00,0,Custom,2013-09-15 07:52:00,
2013-09-15 02:57:00,65.0,55.0,29.83,WNW,296,0.0,0.0,69,0.00,,,0.00,0,Custom,2013-09-15 07:57:00,
2013-09-15 03:02:00,64.8,54.0,29.83,WNW,296,0.0,0.0,69,0.00,,,0.00,0,Custom,2013-09-15 08:02:00,
2013-09-15 03:07:00,64.8,54.0,29.83,WNW,296,0.0,0.0,69,0.00,,,0.00,0,Custom,2013-09-15 08:07:00,
2013-09-15 03:12:00,65.3,55.0,29.83,WNW,295,0.0,0.0,69,0.00,,,0.00,0,Custom,2013-09-15 08:12:00,
2013-09-15 03:17:00,65.6,55.0,29.82,WNW,297,0.0,0.0,68,0.00,,,0.00,0,Custom,2013-09-15 08:17:00,
2013-09-15 03:22:00,65.6,55.0,29.82,WNW,299,0.0,0.0,68,0.00,,,0.00,0,Custom,2013-09-15 08:22:00,
2013-09-15 03:27:00,65.8,55.0,29.82,WNW,300,0.0,0.0,68,0.00,,,0.00,0,Custom,2013-09-15 08:27:00,
2013-09-15 03:32:00,65.9,55.0,29.82,WNW,299,0.0,0.0,68,0.00,,,0.00,0,Custom,2013-09-15 08:32:00,
2013-09-15 03:37:00,66.0,55.0,29.81,WNW,303,0.0,0.0,67,0.00,,,0.00,0,Custom,2013-09-15 08:37:00,
2013-09-15 03:42:00,66.2,55.0,29.81,WNW,301,0.0,0.0,67,0.00,,,0.00,0,Custom,2013-09-15 08:42:00,
2013-09-15 03:47:00,66.8,55.0,29.81,WNW,298,0.0,0.0,66,0.00,,,0.00,0,Custom,2013-09-15 08:47:00,
2013-09-15 03:52:00,67.1,55.0,29.81,NW,304,0.0,0.0,65,0.00,,,0.00,0,Custom,2013-09-15 08:52:00,
2013-09-15 03:57:00,67.3,55.0,29.81,WNW,296,0.0,0.0,66,0.00,,,0.00,0,Custom,2013-09-15 08:57:00,
2013-09-15 04:02:00,67.3,55.0,29.81,WNW,301,0.0,0.0,65,0.00,,,0.00,0,Custom,2013-09-15 09:02:00,
2013-09-15 04:07:00,67.4,55.0,29.81,NW,307,0.0,0.0,65,0.00,,,0.00,0,Custom,2013-09-15 09:07:00,
2013-09-15 04:12:00,67.7,55.0,29.81,WNW,303,0.0,0.0,65,0.00,,,0.00,0,Custom,2013-09-15 09:12:00,
2013-09-15 04:17:00,67.7,55.0,29.81,WNW,302,0.0,0.0,64,0.00,,,0.00,0,Custom,2013-09-15 09:17:00,
2013-09-15 04:22:00,67.8,55.0,29.81,WNW,300,0.0,0.0,64,0.00,,,0.00,0,Custom,2013-09-15 09:22:00,
2013-09-15 04:27:00,67.8,55.0,29.81,WNW,303,0.0,0.0,64,0.00,,,0.00,0,Custom,2013-09-15 09:27:00,
2013-09-15 04:32:00,67.9,55.0,29.81,WNW,297,0.0,0.0,64,0.00,,,0.00,0,Custom,2013-09-15 09:32:00,
2013-09-15 04:37:00,67.9,55.0,29.81,WNW,299,0.0,0.0,63,0.00,,,0.00,0,Custom,2013-09-15 09:37:00,
2013-09-15 04:42:00,67.8,55.0,29.81,WNW,302,0.0,0.0,63,0.00,,,0.00,0,Custom,2013-09-15 09:42:00,
2013-09-15 04:47:00,67.8,55.0,29.81,WNW,294,0.0,0.0,63,0.00,,,0.00,0,Custom,2013-09-15 09:47:00,
2013-09-15 04:52:00,68.0,55.0,29.81,NW,307,0.0,0.0,63,0.00,,,0.00,0,Custom,2013-09-15 09:52:00,
2013-09-15 04:57:00,67.8,55.0,29.81,WNW,303,0.0,0.0,63,0.00,,,0.00,0,Custom,2013-09-15 09:57:00,
2013-09-15 05:02:00,67.9,55.0,29.81,NW,304,0.0,0.0,63,0.00,,,0.00,0,Custom,2013-09-15 10:02:00,
2013-09-15 05:07:00,67.9,55.0,29.81,WNW,303,0.0,0.0,63,0.00,,,0.00,0,Custom,2013-09-15 10:07:00,
2013-09-15 05:12:00,68.0,55.0,29.82,WNW,300,0.0,0.0,63,0.00,,,0.00,0,Custom,2013-09-15 10:12:00,
2013-09-15 05:17:00,67.9,55.0,29.82,WNW,300,0.0,0.0,64,0.00,,,0.00,0,Custom,2013-09-15 10:17:00,
2013-09-15 05:22:00,67.7,55.0,29.82,NW,311,0.0,0.0,63,0.00,,,0.00,0,Custom,2013-09-15 10:22:00,
2013-09-15 05:27:00,67.7,55.0,29.82,NW,313,0.0,0.0,63,0.00,,,0.00,0,Custom,2013-09-15 10:27:00,
2013-09-15 05:32:00,67.6,55.0,29.82,WNW,301,0.0,0.0,64,0.00,,,0.00,0,Custom,2013-09-15 10:32:00,
2013-09-15 05:37:00,67.5,55.0,29.82,WNW,302,0.0,0.0,64,0.00,,,0.00,0,Custom,2013-09-15 10:37:00,
2013-09-15 05:42:00,67.4,55.0,29.82,NW,308,0.0,0.0,64,0.00,,,0.00,0,Custom,2013-09-15 10:42:00,
2013-09-15 05:47:00,67.2,55.0,29.82,NW,304,0.0,0.0,65,0.00,,,0.00,0,Custom,2013-09-15 10:47:00,
2013-09-15 05:52:00,67.2,55.0,29.82,WNW,295,0.0,0.0,65,0.00,,,0.00,0,Custom,2013-09-15 10:52:00,
2013-09-15 05:57:00,67.1,55.0,29.81,WNW,297,0.0,0.0,65,0.00,,,0.00,0,Custom,2013-09-15 10:57:00,
2013-09-15 06:02:00,67.1,55.0,29.82,WNW,302,0.0,0.0,65,0.00,,,0.00,0,Custom,2013-09-15 11:02:00,
2013-09-15 06:07:00,67.1,55.0,29.82,WNW,301,0.0,0.0,65,0.00,,,0.00,0,Custom,2013-09-15 11:07:00,
2013-09-15 06:12:00,66.8,55.0,29.82,NW,304,0.0,0.0,65,0.00,,,0.00,0,Custom,2013-09-15 11:12:00,
2013-09-15 06:17:00,66.8,55.0,29.82,WNW,294,0.0,0.0,65,0.00,,,0.00,0,Custom,2013-09-15 11:17:00,
2013-09-15 06:22:00,66.6,55.0,29.82,WNW,297,0.0,0.0,65,0.00,,,0.00,0,Custom,2013-09-15 11:22:00,
2013-09-15 06:27:00,66.6,55.0,29.82,NW,308,0.0,0.0,66,0.00,,,0.00,0,Custom,2013-09-15 11:27:00,
2013-09-15 06:32:00,66.6,55.0,29.83,WNW,297,0.0,0.0,66,0.00,,,0.00,0,Custom,2013-09-15 11:32:00,
2013-09-15 06:37:00,66.5,55.0,29.83,WNW,298,0.0,0.0,66,0.00,,,0.00,0,Custom,2013-09-15 11:37:00,
2013-09-15 06:42:00,66.4,55.0,29.84,WNW,298,0.0,0.0,66,0.00,,,0.00,0,Custom,2013-09-15 11:42:00,
2013-09-15 06:47:00,66.2,55.0,29.84,WNW,297,0.0,0.0,67,0.00,,,0.00,0,Custom,2013-09-15 11:47:00,
2013-09-15 06:52:00,66.1,55.0,29.84,WNW,299,0.0,0.0,67,0.00,,,0.00,0,Custom,2013-09-15 11:52:00,
2013-09-15 06:57:00,66.1,55.0,29.84,NW,305,0.0,0.0,68,0.00,,,0.00,0,Custom,2013-09-15 11:57:00,
2013-09-15 07:02:00,66.0,55.0,29.83,WNW,303,0.0,0.0,68,0.00,,,0.00,0,Custom,2013-09-15 12:02:00,
2013-09-15 07:07:00,65.9,55.0,29.83,WNW,302,0.0,0.0,67,0.00,,,0.00,0,Custom,2013-09-15 12:07:00,
2013-09-15 07:12:00,65.9,55.0,29.84,NW,305,0.0,0.0,68,0.00,,,0.00,0,Custom,2013-09-15 12:12:00,
2013-09-15 07:17:00,65.7,55.0,29.83,WNW,303,0.0,0.0,68,0.00,,,0.00,0,Custom,2013-09-15 12:17:00,
2013-09-15 07:22:00,65.5,55.0,29.83,WNW,297,0.0,0.0,68,0.00,,,0.00,9.36,Custom,2013-09-15 12:22:00,
2013-09-15 07:27:00,65.6,55.0,29.83,WNW,303,0.0,0.0,68,0.00,,,0.00,13.26,Custom,2013-09-15 12:27:00,
2013-09-15 07:32:00,65.6,55.0,29.83,WNW,301,0.0,0.0,68,0.00,,,0.00,15.6,Custom,2013-09-15 12:32:00,
2013-09-15 07:37:00,65.6,55.0,29.83,WNW,300,0.0,0.0,69,0.00,,,0.00,23.79,Custom,2013-09-15 12:37:00,
2013-09-15 07:42:00,65.6,55.0,29.83,WNW,293,0.0,0.0,69,0.00,,,0.00,30.81,Custom,2013-09-15 12:42:00,
2013-09-15 07:47:00,65.8,55.0,29.83,WNW,297,0.0,0.0,69,0.00,,,0.00,38.61,Custom,2013-09-15 12:47:00,
2013-09-15 07:52:00,66.5,56.0,29.82,WNW,303,0.0,0.0,68,0.00,,,0.00,53.82,Custom,2013-09-15 12:52:00,
2013-09-15 07:57:00,67.4,55.0,29.82,WNW,299,0.0,0.0,66,0.00,,,0.00,66.69,Custom,2013-09-15 12:57:00,
2013-09-15 08:02:00,67.7,55.0,29.82,WNW,297,0.0,0.0,65,0.00,,,0.00,72.93,Custom,2013-09-15 13:02:00,
2013-09-15 08:07:00,68.3,55.0,29.83,NW,307,0.0,0.0,63,0.00,,,0.00,93.21,Custom,2013-09-15 13:07:00,
2013-09-15 08:12:00,68.8,56.0,29.83,WNW,300,0.0,0.0,63,0.00,,,0.00,94.77,Custom,2013-09-15 13:12:00,
2013-09-15 08:17:00,68.9,55.0,29.83,NW,304,0.0,0.0,62,0.00,,,0.00,104.13,Custom,2013-09-15 13:17:00,
2013-09-15 08:22:00,69.2,56.0,29.82,WNW,302,0.0,0.0,63,0.00,,,0.00,109.2,Custom,2013-09-15 13:22:00,
2013-09-15 08:27:00,68.9,56.0,29.82,WNW,299,0.0,0.0,64,0.00,,,0.00,112.32,Custom,2013-09-15 13:27:00,
2013-09-15 08:32:00,69.2,57.0,29.82,WNW,295,0.0,0.0,64,0.00,,,0.00,153.66,Custom,2013-09-15 13:32:00,
2013-09-15 08:37:00,70.5,57.0,29.83,NW,304,0.0,0.0,62,0.00,,,0.00,203.19,Custom,2013-09-15 13:37:00,
2013-09-15 08:42:00,71.6,56.0,29.83,WNW,289,0.0,0.0,58,0.00,,,0.00,248.82,Custom,2013-09-15 13:42:00,
2013-09-15 08:47:00,72.0,56.0,29.83,WNW,300,0.0,0.0,58,0.00,,,0.00,183.3,Custom,2013-09-15 13:47:00,
2013-09-15 08:52:00,71.3,56.0,29.83,WNW,296,0.0,0.0,59,0.00,,,0.00,178.62,Custom,2013-09-15 13:52:00,
2013-09-15 08:57:00,72.4,57.0,29.83,WNW,299,0.0,0.0,59,0.00,,,0.00,310.05,Custom,2013-09-15 13:57:00,
2013-09-15 09:02:00,72.8,57.0,29.83,WNW,302,0.0,0.0,57,0.00,,,0.00,206.7,Custom,2013-09-15 14:02:00,
2013-09-15 09:07:00,73.0,57.0,29.83,WNW,299,0.0,0.0,57,0.00,,,0.00,287.04,Custom,2013-09-15 14:07:00,
2013-09-15 09:12:00,74.1,57.0,29.83,NW,316,0.0,0.0,56,0.00,,,0.00,366.21,Custom,2013-09-15 14:12:00,
2013-09-15 09:17:00,75.0,57.0,29.84,NW,313,0.0,0.0,53,0.00,,,0.00,298.35,Custom,2013-09-15 14:17:00,
2013-09-15 09:22:00,74.9,57.0,29.84,WNW,287,0.0,0.0,53,0.00,,,0.00,157.95,Custom,2013-09-15 14:22:00,
2013-09-15 09:27:00,73.3,57.0,29.85,NW,304,0.0,0.0,56,0.00,,,0.00,135.72,Custom,2013-09-15 14:27:00,
2013-09-15 09:32:00,73.7,57.0,29.85,WNW,301,0.0,0.0,56,0.00,,,0.00,308.88,Custom,2013-09-15 14:32:00,
2013-09-15 09:37:00,76.0,58.0,29.85,WNW,293,0.0,0.0,54,0.00,,,0.00,355.68,Custom,2013-09-15 14:37:00,
2013-09-15 09:42:00,76.1,57.0,29.85,NW,305,0.0,0.0,52,0.00,,,0.00,379.47,Custom,2013-09-15 14:42:00,
2013-09-15 09:47:00,76.7,57.0,29.85,NW,314,0.0,0.0,51,0.00,,,0.00,405.6,Custom,2013-09-15 14:47:00,
2013-09-15 09:52:00,76.2,57.0,29.85,WNW,299,0.0,0.0,52,0.00,,,0.00,344.37,Custom,2013-09-15 14:52:00,
2013-09-15 09:57:00,77.4,58.0,29.85,NW,315,0.0,0.0,52,0.00,,,0.00,472.68,Custom,2013-09-15 14:57:00,
2013-09-15 10:03:00,78.4,58.0,29.86,NW,306,0.0,0.0,50,0.00,,,0.00,457.86,Custom,2013-09-15 15:03:00,
2013-09-15 10:08:00,76.6,58.0,29.86,WNW,303,0.0,0.0,52,0.00,,,0.00,221.91,Custom,2013-09-15 15:08:00,
2013-09-15 10:13:00,75.6,57.0,29.86,NW,306,0.0,0.0,53,0.00,,,0.00,164.58,Custom,2013-09-15 15:13:00,
2013-09-15 10:18:00,75.7,59.0,29.86,WNW,294,0.0,0.0,56,0.00,,,0.00,163.8,Custom,2013-09-15 15:18:00,
2013-09-15 10:23:00,76.1,59.0,29.86,NNW,332,0.0,0.0,56,0.00,,,0.00,289.77,Custom,2013-09-15 15:23:00,
2013-09-15 10:28:00,78.8,60.0,29.86,WNW,301,0.0,0.0,52,0.00,,,0.00,411.84,Custom,2013-09-15 15:28:00,
2013-09-15 10:33:00,79.4,59.0,29.87,WNW,293,0.0,0.0,50,0.00,,,0.00,388.44,Custom,2013-09-15 15:33:00,
2013-09-15 10:38:00,78.6,58.0,29.88,WNW,298,0.0,0.0,50,0.00,,,0.00,194.61,Custom,2013-09-15 15:38:00,
2013-09-15 10:43:00,78.1,59.0,29.88,West,260,0.0,0.0,52,0.00,,,0.00,166.53,Custom,2013-09-15 15:43:00,
2013-09-15 10:48:00,77.7,60.0,29.89,WNW,303,0.0,0.0,54,0.00,,,0.00,157.95,Custom,2013-09-15 15:48:00,
2013-09-15 10:53:00,77.6,60.0,29.90,WNW,303,0.0,0.0,54,0.00,,,0.00,98.67,Custom,2013-09-15 15:53:00,
2013-09-15 10:58:00,77.4,59.0,29.91,WNW,302,0.0,0.0,54,0.00,,,0.00,134.55,Custom,2013-09-15 15:58:00,
2013-09-15 11:03:00,77.3,60.0,29.91,NW,308,0.0,0.0,55,0.00,,,0.00,71.37,Custom,2013-09-15 16:03:00,
2013-09-15 11:08:00,75.7,61.0,29.91,NW,308,0.0,0.0,59,0.00,,,0.00,75.27,Custom,2013-09-15 16:08:00,
2013-09-15 11:13:00,73.7,62.0,29.91,NW,316,0.0,0.0,66,0.01,,,0.02,65.13,Custom,2013-09-15 16:13:00,
2013-09-15 11:18:00,70.9,62.0,29.91,NW,316,0.0,0.0,74,0.03,,,0.04,60.06,Custom,2013-09-15 16:18:00,
2013-09-15 11:23:00,69.2,63.0,29.91,NW,312,0.0,0.0,80,0.05,,,0.05,81.51,Custom,2013-09-15 16:23:00,
2013-09-15 11:28:00,69.6,64.0,29.91,NW,311,0.0,0.0,82,0.05,,,0.05,81.51,Custom,2013-09-15 16:28:00,
2013-09-15 11:33:00,69.9,65.0,29.91,NW,311,0.0,0.0,84,0.05,,,0.05,77.22,Custom,2013-09-15 16:33:00,
2013-09-15 11:38:00,70.1,65.0,29.91,NW,311,0.0,0.0,84,0.05,,,0.05,103.74,Custom,2013-09-15 16:38:00,
2013-09-15 11:43:00,71.1,66.0,29.90,NW,311,0.0,0.0,85,0.05,,,0.05,175.11,Custom,2013-09-15 16:43:00,
2013-09-15 11:48:00,71.8,65.0,29.90,NW,311,0.0,0.0,79,0.05,,,0.05,267.93,Custom,2013-09-15 16:48:00,
2013-09-15 11:53:00,73.9,67.0,29.90,NW,311,0.0,0.0,79,0.05,,,0.05,283.14,Custom,2013-09-15 16:53:00,
2013-09-15 11:58:00,74.6,66.0,29.90,NW,311,0.0,0.0,75,0.05,,,0.05,524.55,Custom,2013-09-15 16:58:00,
2013-09-15 12:03:00,75.5,67.0,29.90,NW,310,0.0,0.0,75,0.05,,,0.05,664.17,Custom,2013-09-15 17:03:00,
2013-09-15 12:08:00,77.7,67.0,29.89,NW,310,0.0,0.0,70,0.05,,,0.05,585,Custom,2013-09-15 17:08:00,
2013-09-15 12:13:00,77.9,66.0,29.89,NW,313,0.0,0.0,67,0.04,,,0.05,204.75,Custom,2013-09-15 17:13:00,
2013-09-15 12:18:00,77.7,65.0,29.89,NW,319,0.0,0.0,65,0.02,,,0.05,368.94,Custom,2013-09-15 17:18:00,
2013-09-15 12:23:00,79.0,64.0,29.89,NW,318,0.0,0.0,60,0.00,,,0.05,268.32,Custom,2013-09-15 17:23:00,
2013-09-15 12:28:00,77.9,63.0,29.89,WNW,303,0.0,0.0,60,0.00,,,0.05,647.4,Custom,2013-09-15 17:28:00,
2013-09-15 12:33:00,79.3,66.0,29.89,NW,305,0.0,0.0,65,0.00,,,0.05,279.63,Custom,2013-09-15 17:33:00,
2013-09-15 12:38:00,78.8,64.0,29.89,WNW,300,0.0,0.0,60,0.00,,,0.05,232.44,Custom,2013-09-15 17:38:00,
2013-09-15 12:43:00,78.6,63.0,29.89,NW,307,0.0,0.0,59,0.00,,,0.05,406.38,Custom,2013-09-15 17:43:00,
2013-09-15 12:48:00,80.9,65.0,29.89,NW,306,0.0,0.0,59,0.00,,,0.05,583.05,Custom,2013-09-15 17:48:00,
2013-09-15 12:53:00,80.7,64.0,29.89,NW,308,0.0,0.0,57,0.00,,,0.05,191.1,Custom,2013-09-15 17:53:00,
2013-09-15 12:58:00,81.0,64.0,29.89,NW,305,0.0,0.0,56,0.00,,,0.05,697.32,Custom,2013-09-15 17:58:00,
2013-09-15 13:03:00,82.9,65.0,29.89,WNW,303,0.0,0.0,54,0.00,,,0.05,709.02,Custom,2013-09-15 18:03:00,
2013-09-15 13:08:00,83.9,66.0,29.89,WNW,282,0.0,0.0,55,0.00,,,0.05,711.36,Custom,2013-09-15 18:08:00,
2013-09-15 13:13:00,84.2,65.0,29.89,West,269,0.0,0.0,53,0.00,,,0.05,679.77,Custom,2013-09-15 18:13:00,
2013-09-15 13:18:00,85.6,66.0,29.89,West,265,0.0,0.0,52,0.00,,,0.05,689.91,Custom,2013-09-15 18:18:00,
2013-09-15 13:23:00,85.2,65.0,29.89,WNW,294,0.0,0.0,50,0.00,,,0.05,682.5,Custom,2013-09-15 18:23:00,
2013-09-15 13:28:00,85.2,64.0,29.89,West,263,0.0,0.0,50,0.00,,,0.05,227.37,Custom,2013-09-15 18:28:00,
2013-09-15 13:33:00,83.0,64.0,29.89,West,272,0.0,0.0,52,0.00,,,0.05,189.54,Custom,2013-09-15 18:33:00,
2013-09-15 13:38:00,82.4,65.0,29.88,WNW,282,0.0,0.0,55,0.00,,,0.05,187.98,Custom,2013-09-15 18:38:00,
2013-09-15 13:43:00,82.4,65.0,29.88,West,279,0.0,0.0,56,0.00,,,0.05,197.73,Custom,2013-09-15 18:43:00,
2013-09-15 13:48:00,82.8,65.0,29.88,West,278,0.0,0.0,54,0.00,,,0.05,600.99,Custom,2013-09-15 18:48:00,
2013-09-15 13:53:00,85.7,67.0,29.88,WNW,293,0.0,0.0,54,0.00,,,0.05,665.73,Custom,2013-09-15 18:53:00,
2013-09-15 13:58:00,84.8,64.0,29.88,NNW,327,0.0,0.0,49,0.00,,,0.05,282.75,Custom,2013-09-15 18:58:00,
2013-09-15 14:03:00,85.7,66.0,29.88,NW,324,0.0,0.0,53,0.00,,,0.05,660.27,Custom,2013-09-15 19:03:00,
2013-09-15 14:08:00,85.9,65.0,29.88,NW,324,0.0,0.0,50,0.00,,,0.05,528.45,Custom,2013-09-15 19:08:00,
2013-09-15 14:13:00,86.1,65.0,29.88,NW,323,0.0,0.0,50,0.00,,,0.05,241.02,Custom,2013-09-15 19:13:00,
2013-09-15 14:18:00,85.4,64.0,29.87,WNW,286,0.0,0.0,49,0.00,,,0.05,288.99,Custom,2013-09-15 19:18:00,
2013-09-15 14:23:00,87.5,67.0,29.86,WNW,300,0.0,0.0,50,0.00,,,0.05,365.82,Custom,2013-09-15 19:23:00,
2013-09-15 14:28:00,87.7,65.0,29.86,WNW,303,0.0,0.0,46,0.00,,,0.05,670.02,Custom,2013-09-15 19:28:00,
2013-09-15 14:33:00,86.3,65.0,29.86,NW,307,0.0,0.0,49,0.00,,,0.05,242.97,Custom,2013-09-15 19:33:00,
2013-09-15 14:38:00,84.8,64.0,29.86,WNW,302,0.0,0.0,50,0.00,,,0.05,202.41,Custom,2013-09-15 19:38:00,
2013-09-15 14:43:00,84.3,65.0,29.86,WNW,302,0.0,0.0,52,0.00,,,0.05,155.22,Custom,2013-09-15 19:43:00,
2013-09-15 14:48:00,84.3,65.0,29.86,WNW,302,0.0,0.0,53,0.00,,,0.05,150.15,Custom,2013-09-15 19:48:00,
2013-09-15 14:53:00,83.5,65.0,29.87,NW,309,0.0,0.0,53,0.00,,,0.05,177.06,Custom,2013-09-15 19:53:00,
2013-09-15 14:58:00,85.7,67.0,29.86,NW,323,0.0,0.0,54,0.00,,,0.05,667.29,Custom,2013-09-15 19:58:00,
2013-09-15 15:03:00,88.0,66.0,29.85,NW,308,0.0,0.0,49,0.00,,,0.05,622.83,Custom,2013-09-15 20:03:00,
2013-09-15 15:08:00,88.1,65.0,29.86,NW,316,0.0,0.0,46,0.00,,,0.05,604.5,Custom,2013-09-15 20:08:00,
2013-09-15 15:14:00,89.3,66.0,29.87,NW,309,0.0,0.0,46,0.00,,,0.05,225.03,Custom,2013-09-15 20:14:00,
2013-09-15 15:19:00,87.3,65.0,29.87,NW,309,0.0,0.0,47,0.00,,,0.05,246.48,Custom,2013-09-15 20:19:00,
2013-09-15 15:24:00,86.9,66.0,29.86,NW,324,0.0,0.0,49,0.00,,,0.05,526.5,Custom,2013-09-15 20:24:00,
2013-09-15 15:29:00,87.3,65.0,29.86,NNW,329,0.0,0.0,48,0.00,,,0.05,245.7,Custom,2013-09-15 20:29:00,
2013-09-15 15:34:00,86.3,65.0,29.87,WNW,296,0.0,0.0,49,0.00,,,0.05,188.37,Custom,2013-09-15 20:34:00,
2013-09-15 15:39:00,85.8,65.0,29.86,WNW,297,0.0,0.0,50,0.00,,,0.05,218.4,Custom,2013-09-15 20:39:00,
2013-09-15 15:44:00,86.4,66.0,29.87,WNW,295,0.0,0.0,50,0.00,,,0.05,258.18,Custom,2013-09-15 20:44:00,
2013-09-15 15:49:00,87.4,66.0,29.86,WNW,295,0.0,0.0,49,0.00,,,0.05,363.87,Custom,2013-09-15 20:49:00,
2013-09-15 15:54:00,86.5,65.0,29.86,WNW,295,0.0,0.0,48,0.00,,,0.05,262.86,Custom,2013-09-15 20:54:00,
2013-09-15 15:59:00,89.4,67.0,29.86,NW,307,0.0,0.0,48,0.00,,,0.05,597.48,Custom,2013-09-15 20:59:00,
2013-09-15 16:04:00,89.0,65.0,29.86,NW,318,0.0,0.0,45,0.00,,,0.05,232.83,Custom,2013-09-15 21:04:00,
2013-09-15 16:09:00,88.0,65.0,29.88,NW,319,0.0,0.0,46,0.00,,,0.05,273.39,Custom,2013-09-15 21:09:00,
2013-09-15 16:14:00,89.3,66.0,29.87,NW,319,0.0,0.0,47,0.00,,,0.05,287.43,Custom,2013-09-15 21:14:00,
2013-09-15 16:19:00,89.0,66.0,29.87,NW,318,0.0,0.0,46,0.00,,,0.05,386.49,Custom,2013-09-15 21:19:00,
2013-09-15 16:24:00,88.0,65.0,29.87,WNW,295,0.0,0.0,47,0.00,,,0.05,220.74,Custom,2013-09-15 21:24:00,
2013-09-15 16:29:00,87.7,66.0,29.87,WNW,296,0.0,0.0,49,0.00,,,0.05,200.46,Custom,2013-09-15 21:29:00,
2013-09-15 16:34:00,87.5,65.0,29.88,WNW,303,0.0,0.0,48,0.00,,,0.05,138.84,Custom,2013-09-15 21:34:00,
2013-09-15 16:39:00,86.7,66.0,29.87,WNW,303,0.0,0.0,50,0.00,,,0.05,120.9,Custom,2013-09-15 21:39:00,
2013-09-15 16:44:00,86.5,67.0,29.87,WNW,303,0.0,0.0,52,0.00,,,0.05,149.37,Custom,2013-09-15 21:44:00,
2013-09-15 16:49:00,85.7,65.0,29.87,West,280,0.0,0.0,51,0.00,,,0.05,175.5,Custom,2013-09-15 21:49:00,
2013-09-15 16:54:00,87.2,67.0,29.87,West,275,0.0,0.0,50,0.00,,,0.05,254.67,Custom,2013-09-15 21:54:00,
2013-09-15 16:59:00,86.8,66.0,29.88,WNW,282,0.0,0.0,50,0.00,,,0.05,146.64,Custom,2013-09-15 21:59:00,
2013-09-15 17:04:00,86.0,66.0,29.87,WNW,293,0.0,0.0,51,0.00,,,0.05,137.67,Custom,2013-09-15 22:04:00,
2013-09-15 17:09:00,86.7,67.0,29.87,West,280,0.0,0.0,52,0.00,,,0.05,214.89,Custom,2013-09-15 22:09:00,
2013-09-15 17:14:00,87.3,67.0,29.87,WNW,282,0.0,0.0,50,0.00,,,0.05,182.91,Custom,2013-09-15 22:14:00,
2013-09-15 17:19:00,86.4,67.0,29.87,West,265,0.0,0.0,52,0.00,,,0.05,159.51,Custom,2013-09-15 22:19:00,
2013-09-15 17:24:00,86.2,67.0,29.87,WSW,257,0.0,0.0,53,0.00,,,0.05,169.65,Custom,2013-09-15 22:24:00,
2013-09-15 17:29:00,85.9,66.0,29.87,WSW,256,0.0,0.0,52,0.00,,,0.05,120.51,Custom,2013-09-15 22:29:00,
2013-09-15 17:34:00,85.6,67.0,29.87,West,264,0.0,0.0,53,0.00,,,0.05,106.47,Custom,2013-09-15 22:34:00,
2013-09-15 17:39:00,85.0,67.0,29.88,West,265,0.0,0.0,55,0.00,,,0.05,79.95,Custom,2013-09-15 22:39:00,
2013-09-15 17:44:00,84.8,67.0,29.88,WSW,258,0.0,0.0,56,0.00,,,0.05,72.93,Custom,2013-09-15 22:44:00,
2013-09-15 17:49:00,84.5,67.0,29.88,WSW,257,0.0,0.0,56,0.00,,,0.05,62.4,Custom,2013-09-15 22:49:00,
2013-09-15 17:54:00,83.8,66.0,29.88,West,265,0.0,0.0,56,0.00,,,0.05,53.82,Custom,2013-09-15 22:54:00,
2013-09-15 17:59:00,83.4,67.0,29.88,West,259,0.0,0.0,57,0.00,,,0.05,52.65,Custom,2013-09-15 22:59:00,
2013-09-15 18:04:00,80.9,68.0,29.88,West,260,0.0,0.0,64,0.00,,,0.05,44.85,Custom,2013-09-15 23:04:00,
2013-09-15 18:09:00,80.3,68.0,29.89,West,262,0.0,0.0,67,0.00,,,0.05,40.95,Custom,2013-09-15 23:09:00,
2013-09-15 18:14:00,79.5,68.0,29.89,West,259,0.0,0.0,68,0.00,,,0.05,28.86,Custom,2013-09-15 23:14:00,
2013-09-15 18:19:00,78.8,68.0,29.89,NW,314,0.0,0.0,69,0.00,,,0.05,15.6,Custom,2013-09-15 23:19:00,
2013-09-15 18:24:00,78.3,68.0,29.89,WSW,253,0.0,0.0,70,0.00,,,0.05,12.48,Custom,2013-09-15 23:24:00,
2013-09-15 18:29:00,76.7,69.0,29.89,North,359,0.0,0.0,75,0.02,,,0.08,13.26,Custom,2013-09-15 23:29:00,
2013-09-15 18:34:00,74.6,68.0,29.91,WNW,303,0.0,0.0,80,0.05,,,0.11,13.26,Custom,2013-09-15 23:34:00,
2013-09-15 18:39:00,74.1,68.0,29.91,West,268,0.0,0.0,83,0.05,,,0.11,0,Custom,2013-09-15 23:39:00,
2013-09-15 18:44:00,73.7,69.0,29.91,West,272,0.0,0.0,85,0.05,,,0.11,0,Custom,2013-09-15 23:44:00,
2013-09-15 18:49:00,73.3,69.0,29.91,North,360,0.0,0.0,86,0.08,,,0.14,8.19,Custom,2013-09-15 23:49:00,
2013-09-15 18:54:00,72.6,68.0,29.91,West,266,0.0,0.0,87,0.08,,,0.14,0,Custom,2013-09-15 23:54:00,
2013-09-15 18:59:00,72.3,68.0,29.91,WSW,251,0.0,0.0,87,0.08,,,0.14,0,Custom,2013-09-15 23:59:00,
2013-09-15 19:04:00,72.1,68.0,29.91,WSW,244,0.0,0.0,88,0.08,,,0.14,0,Custom,2013-09-16 00:04:00,
2013-09-15 19:09:00,71.9,68.0,29.91,SW,236,0.0,0.0,88,0.08,,,0.14,0,Custom,2013-09-16 00:09:00,
2013-09-15 19:14:00,71.8,68.0,29.91,WSW,256,0.0,0.0,88,0.08,,,0.14,0,Custom,2013-09-16 00:14:00,
2013-09-15 19:19:00,71.6,68.0,29.91,WSW,251,0.0,0.0,88,0.08,,,0.14,0,Custom,2013-09-16 00:19:00,
2013-09-15 19:24:00,71.4,68.0,29.91,West,261,0.0,0.0,89,0.08,,,0.14,0,Custom,2013-09-16 00:24:00,
2013-09-15 19:29:00,71.3,68.0,29.92,North,359,0.0,0.0,89,0.05,,,0.14,0,Custom,2013-09-16 00:29:00,
2013-09-15 19:34:00,71.2,68.0,29.92,WSW,257,0.0,0.0,89,0.03,,,0.14,0,Custom,2013-09-16 00:34:00,
2013-09-15 19:39:00,71.0,68.0,29.92,WSW,245,0.0,0.0,90,0.03,,,0.14,0,Custom,2013-09-16 00:39:00,
2013-09-15 19:44:00,70.8,68.0,29.93,WSW,255,0.0,0.0,90,0.03,,,0.14,0,Custom,2013-09-16 00:44:00,
2013-09-15 19:49:00,70.7,67.0,29.94,WSW,251,0.0,0.0,90,0.00,,,0.14,0,Custom,2013-09-16 00:49:00,
2013-09-15 19:54:00,70.5,67.0,29.94,West,261,0.0,0.0,89,0.00,,,0.14,0,Custom,2013-09-16 00:54:00,
2013-09-15 19:59:00,70.3,67.0,29.94,WSW,256,0.0,0.0,89,0.00,,,0.14,0,Custom,2013-09-16 00:59:00,
2013-09-15 20:04:00,70.2,67.0,29.94,WSW,257,0.0,0.0,90,0.00,,,0.14,0,Custom,2013-09-16 01:04:00,
2013-09-15 20:09:00,70.1,67.0,29.95,WSW,255,0.0,0.0,89,0.00,,,0.14,0,Custom,2013-09-16 01:09:00,
2013-09-15 20:14:00,69.9,67.0,29.95,WSW,248,0.0,0.0,89,0.00,,,0.14,0,Custom,2013-09-16 01:14:00,
2013-09-15 20:19:00,69.8,67.0,29.95,NNW,344,0.0,0.0,90,0.00,,,0.14,0,Custom,2013-09-16 01:19:00,
2013-09-15 20:24:00,69.6,67.0,29.96,SW,235,0.0,0.0,90,0.00,,,0.14,0,Custom,2013-09-16 01:24:00,
2013-09-15 20:29:00,69.6,66.0,29.96,WSW,244,0.0,0.0,90,0.00,,,0.14,0,Custom,2013-09-16 01:29:00,
2013-09-15 20:34:00,69.4,66.0,29.96,SW,222,0.0,0.0,90,0.00,,,0.14,0,Custom,2013-09-16 01:34:00,
2013-09-15 20:39:00,69.2,66.0,29.96,WSW,251,0.0,0.0,90,0.00,,,0.14,0,Custom,2013-09-16 01:39:00,
2013-09-15 20:44:00,69.0,66.0,29.96,WSW,252,0.0,0.0,90,0.00,,,0.14,0,Custom,2013-09-16 01:44:00,
2013-09-15 20:49:00,68.9,66.0,29.96,SW,220,0.0,0.0,90,0.00,,,0.14,0,Custom,2013-09-16 01:49:00,
2013-09-15 20:54:00,68.9,66.0,29.96,SW,228,0.0,0.0,90,0.00,,,0.14,0,Custom,2013-09-16 01:54:00,
2013-09-15 20:59:00,68.8,65.0,29.96,WSW,244,0.0,0.0,89,0.00,,,0.14,0,Custom,2013-09-16 01:59:00,
2013-09-15 21:04:00,68.8,65.0,29.97,WSW,258,0.0,0.0,89,0.00,,,0.14,0,Custom,2013-09-16 02:04:00,
2013-09-15 21:09:00,68.8,65.0,29.96,WSW,258,0.0,0.0,89,0.00,,,0.14,0,Custom,2013-09-16 02:09:00,
2013-09-15 21:14:00,68.9,65.0,29.97,SW,236,0.0,0.0,89,0.00,,,0.14,0,Custom,2013-09-16 02:14:00,
2013-09-15 21:19:00,68.8,65.0,29.96,WSW,255,0.0,0.0,88,0.00,,,0.14,0,Custom,2013-09-16 02:19:00,
2013-09-15 21:24:00,68.8,65.0,29.97,WSW,247,0.0,0.0,88,0.00,,,0.14,0,Custom,2013-09-16 02:24:00,
2013-09-15 21:29:00,68.9,65.0,29.97,WSW,248,0.0,0.0,88,0.00,,,0.14,0,Custom,2013-09-16 02:29:00,
2013-09-15 21:34:00,68.9,65.0,29.97,WSW,252,0.0,0.0,88,0.00,,,0.14,0,Custom,2013-09-16 02:34:00,
2013-09-15 21:39:00,68.8,65.0,29.97,WSW,239,0.0,0.0,88,0.00,,,0.14,0,Custom,2013-09-16 02:39:00,
2013-09-15 21:44:00,68.9,65.0,29.97,WSW,243,0.0,0.0,88,0.00,,,0.14,0,Custom,2013-09-16 02:44:00,
2013-09-15 21:49:00,68.9,65.0,29.97,WSW,248,0.0,0.0,88,0.00,,,0.14,0,Custom,2013-09-16 02:49:00,
2013-09-15 21:54:00,68.8,65.0,29.97,West,261,0.0,0.0,88,0.00,,,0.14,0,Custom,2013-09-16 02:54:00,
2013-09-15 21:59:00,68.7,65.0,29.97,WSW,243,0.0,0.0,87,0.00,,,0.14,0,Custom,2013-09-16 02:59:00,
2013-09-15 22:04:00,68.6,65.0,29.98,WSW,241,0.0,0.0,87,0.00,,,0.14,0,Custom,2013-09-16 03:04:00,
2013-09-15 22:09:00,68.3,64.0,29.98,WSW,241,0.0,0.0,86,0.00,,,0.14,0,Custom,2013-09-16 03:09:00,
2013-09-15 22:14:00,68.1,64.0,29.98,WSW,247,0.0,0.0,86,0.00,,,0.14,0,Custom,2013-09-16 03:14:00,
2013-09-15 22:19:00,67.9,64.0,29.98,SW,223,0.0,0.0,86,0.00,,,0.14,0,Custom,2013-09-16 03:19:00,
2013-09-15 22:24:00,67.8,64.0,29.98,West,261,0.0,0.0,86,0.00,,,0.14,0,Custom,2013-09-16 03:24:00,
2013-09-15 22:29:00,67.8,63.0,29.99,WSW,254,0.0,0.0,86,0.00,,,0.14,0,Custom,2013-09-16 03:29:00,
2013-09-15 22:34:00,67.7,63.0,29.99,WSW,245,0.0,0.0,86,0.00,,,0.14,0,Custom,2013-09-16 03:34:00,
2013-09-15 22:39:00,67.6,63.0,29.98,WSW,257,0.0,0.0,86,0.00,,,0.14,0,Custom,2013-09-16 03:39:00,
2013-09-15 22:44:00,67.6,63.0,29.99,WSW,238,0.0,0.0,85,0.00,,,0.14,0,Custom,2013-09-16 03:44:00,
2013-09-15 22:49:00,67.5,63.0,29.99,WSW,244,0.0,0.0,86,0.00,,,0.14,0,Custom,2013-09-16 03:49:00,
2013-09-15 22:54:00,67.5,63.0,30.00,WSW,242,0.0,0.0,86,0.00,,,0.14,0,Custom,2013-09-16 03:54:00,
2013-09-15 22:59:00,67.4,63.0,30.00,SW,234,0.0,0.0,86,0.00,,,0.14,0,Custom,2013-09-16 03:59:00,
2013-09-15 23:01:00,67.4,63.0,29.99,SW,236,0.0,0.0,86,0.00,,,0.14,0,Custom,2013-09-16 04:01:00,
2013-09-15 23:02:00,67.4,63.0,29.99,WSW,248,0.0,0.0,86,0.00,,,0.14,0,Custom,2013-09-16 04:02:00,
2013-09-15 23:03:00,67.4,63.0,29.99,WSW,248,0.0,0.0,86,0.00,,,0.14,0,Custom,2013-09-16 04:03:00,
2013-09-15 23:04:00,67.2,63.0,29.99,WSW,243,0.0,0.0,86,0.00,,,0.14,0,Custom,2013-09-16 04:04:00,
2013-09-15 23:09:00,67.1,63.0,29.98,WSW,238,0.0,0.0,86,0.00,,,0.14,0,Custom,2013-09-16 04:09:00,
2013-09-15 23:14:00,67.1,63.0,29.99,WSW,244,0.0,0.0,86,0.00,,,0.14,0,Custom,2013-09-16 04:14:00,
2013-09-15 23:19:00,67.1,63.0,29.99,SW,234,0.0,0.0,86,0.00,,,0.14,0,Custom,2013-09-16 04:19:00,
2013-09-15 23:24:00,67.1,62.0,30.00,NNW,330,0.0,0.0,85,0.00,,,0.14,0,Custom,2013-09-16 04:24:00,
2013-09-15 23:29:00,66.9,62.0,30.00,WSW,237,0.0,0.0,86,0.00,,,0.14,0,Custom,2013-09-16 04:29:00,
2013-09-15 23:34:00,66.7,62.0,30.01,WSW,238,0.0,0.0,86,0.00,,,0.14,0,Custom,2013-09-16 04:34:00,
2013-09-15 23:39:00,66.5,62.0,30.01,WSW,245,0.0,0.0,86,0.00,,,0.14,0,Custom,2013-09-16 04:39:00,
2013-09-15 23:44:00,66.0,62.0,30.01,SW,232,0.0,0.0,86,0.00,,,0.14,0,Custom,2013-09-16 04:44:00,
2013-09-15 23:49:00,65.8,62.0,30.01,WSW,246,0.0,0.0,87,0.00,,,0.14,0,Custom,2013-09-16 04:49:00,
2013-09-15 23:54:00,65.7,62.0,30.01,North,356,0.0,0.0,87,0.00,,,0.14,0,Custom,2013-09-16 04:54:00,
2013-09-15 23:59:00,65.6,62.0,30.01,WSW,237,0.0,0.0,88,0.00,,,0.14,0,Custom,2013-09-16 04:59:00,